| time (UTC) | temp F | wind direction | speed knots | gust knots | rain 1hr in | rain 24hr in | rain mn in | humidity % | barometer mb |
| 20260506114204 | 59 | 221 | 1.7 | 8.7 | 0.00 | 0.00 | 0.00 | 90 | 1016.1 |
| 20260506113703 | 58 | 238 | 3.5 | 8.7 | 0.00 | 0.00 | 0.00 | 91 | 1016.0 |
| 20260506113200 | 58 | 204 | 5.2 | 8.7 | 0.00 | 0.00 | 0.00 | 91 | 1016.2 |
| 20260506112655 | 58 | 253 | 4.3 | 7.8 | 0.00 | 0.00 | 0.00 | 91 | 1016.3 |
| 20260506112154 | 58 | 203 | 3.5 | 5.2 | 0.00 | 0.00 | 0.00 | 92 | 1016.3 |
| 20260506111651 | 57 | 245 | 4.3 | 9.6 | 0.00 | 0.00 | 0.00 | 92 | 1016.4 |
| 20260506111149 | 57 | 249 | 7.8 | 8.7 | 0.00 | 0.00 | 0.00 | 93 | 1016.2 |
| 20260506110646 | 57 | 236 | 3.5 | 7.0 | 0.00 | 0.00 | 0.00 | 93 | 1016.3 |
| 20260506110143 | 57 | 206 | 2.6 | 8.7 | 0.00 | 0.00 | 0.00 | 94 | 1016.2 |
| 20260506105640 | 57 | 193 | 2.6 | 7.8 | 0.00 | 0.00 | 0.00 | 93 | 1016.2 |
| 20260506105137 | 57 | 249 | 7.8 | 9.6 | 0.00 | 0.00 | 0.00 | 93 | 1016.3 |
| 20260506104634 | 57 | 195 | 6.1 | 9.6 | 0.00 | 0.00 | 0.00 | 93 | 1016.0 |
| 20260506104132 | 57 | 240 | 3.5 | 8.7 | 0.00 | 0.00 | 0.00 | 93 | 1015.9 |
| 20260506103629 | 57 | 239 | 4.3 | 6.1 | 0.00 | 0.00 | 0.00 | 93 | 1015.9 |
| 20260506103126 | 57 | 219 | 4.3 | 6.1 | 0.00 | 0.00 | 0.00 | 94 | 1016.0 |
| 20260506102624 | 57 | 246 | 3.5 | 9.6 | 0.00 | 0.00 | 0.00 | 94 | 1015.9 |
| 20260506102121 | 57 | 206 | 3.5 | 9.6 | 0.00 | 0.00 | 0.00 | 94 | 1015.9 |
| 20260506101618 | 57 | 134 | 2.6 | 5.2 | 0.00 | 0.00 | 0.00 | 94 | 1015.8 |
| 20260506101114 | 57 | 229 | 4.3 | 14.8 | 0.00 | 0.00 | 0.00 | 94 | 1015.9 |
| 20260506100613 | 57 | 204 | 3.5 | 8.7 | 0.00 | 0.00 | 0.00 | 94 | 1015.7 |
| 20260506100110 | 57 | 217 | 6.1 | 13.0 | 0.00 | 0.00 | 0.00 | 94 | 1015.6 |
| 20260506095609 | 57 | 242 | 1.7 | 12.2 | 0.00 | 0.00 | 0.00 | 94 | 1016.1 |
| 20260506095105 | 57 | 232 | 3.5 | 8.7 | 0.00 | 0.00 | 0.00 | 95 | 1015.9 |
| 20260506094603 | 57 | 215 | 3.5 | 13.9 | 0.00 | 0.00 | 0.00 | 95 | 1015.9 |
| 20260506094101 | 57 | 250 | 5.2 | 9.6 | 0.00 | 0.00 | 0.00 | 95 | 1016.0 |
| 20260506093559 | 57 | 243 | 5.2 | 9.6 | 0.00 | 0.00 | 0.00 | 95 | 1015.8 |
| 20260506093056 | 57 | 233 | 1.7 | 8.7 | 0.00 | 0.00 | 0.00 | 95 | 1015.9 |
| 20260506092554 | 57 | 207 | 7.0 | 8.7 | 0.00 | 0.00 | 0.00 | 95 | 1015.8 |
| 20260506092050 | 57 | 246 | 5.2 | 8.7 | 0.00 | 0.00 | 0.00 | 95 | 1016.0 |
| 20260506091549 | 57 | 246 | 2.6 | 6.1 | 0.00 | 0.00 | 0.00 | 95 | 1015.9 |
| 20260506091046 | 57 | 213 | 6.1 | 7.0 | 0.00 | 0.00 | 0.00 | 95 | 1016.0 |
| 20260506090543 | 57 | 246 | 3.5 | 6.1 | 0.00 | 0.00 | 0.00 | 95 | 1016.1 |
| 20260506090039 | 57 | 165 | 3.5 | 7.8 | 0.00 | 0.00 | 0.00 | 95 | 1016.0 |
| 20260506085536 | 57 | 224 | 3.5 | 7.8 | 0.00 | 0.00 | 0.00 | 94 | 1016.1 |
| 20260506085033 | 57 | 222 | 1.7 | 7.0 | 0.00 | 0.00 | 0.00 | 94 | 1016.1 |
| 20260506084530 | 57 | 245 | 1.7 | 7.0 | 0.00 | 0.00 | 0.00 | 94 | 1016.2 |
| 20260506084026 | 57 | 249 | 3.5 | 7.0 | 0.00 | 0.00 | 0.00 | 94 | 1016.2 |
| 20260506083523 | 57 | 226 | 4.3 | 7.8 | 0.00 | 0.00 | 0.00 | 94 | 1016.1 |
| 20260506083021 | 57 | 184 | 2.6 | 11.3 | 0.00 | 0.00 | 0.00 | 94 | 1016.0 |
| 20260506082517 | 57 | 240 | 7.8 | 8.7 | 0.00 | 0.00 | 0.00 | 94 | 1016.1 |
| 20260506082013 | 57 | 229 | 5.2 | 7.8 | 0.00 | 0.00 | 0.00 | 93 | 1016.3 |
| 20260506081511 | 57 | 254 | 5.2 | 11.3 | 0.00 | 0.00 | 0.00 | 93 | 1016.0 |
| 20260506081008 | 57 | 210 | 6.1 | 12.2 | 0.00 | 0.00 | 0.00 | 93 | 1016.3 |
| 20260506080506 | 57 | 216 | 7.8 | 9.6 | 0.00 | 0.00 | 0.00 | 93 | 1016.2 |
| 20260506073449 | 57 | 239 | 1.7 | 7.8 | 0.00 | 0.00 | 0.00 | 92 | 1016.5 |
| 20260506072946 | 57 | 227 | 7.8 | 12.2 | 0.00 | 0.00 | 0.00 | 92 | 1016.5 |
| 20260506072444 | 57 | 246 | 7.8 | 8.7 | 0.00 | 0.00 | 0.00 | 92 | 1016.4 |
| 20260506071942 | 57 | 235 | 7.0 | 13.9 | 0.00 | 0.00 | 0.00 | 91 | 1016.5 |
| 20260506071439 | 57 | 243 | 3.5 | 16.5 | 0.00 | 0.00 | 0.00 | 91 | 1016.7 |
| 20260506070936 | 57 | 201 | 5.2 | 12.2 | 0.00 | 0.00 | 0.00 | 91 | 1016.5 |
| 20260506070433 | 57 | 238 | 6.1 | 7.8 | 0.00 | 0.00 | 0.00 | 91 | 1016.5 |
| 20260506062410 | 58 | 222 | 4.3 | 7.8 | 0.00 | 0.00 | 0.00 | 90 | 1016.4 |
| 20260506061906 | 58 | 221 | 3.5 | 9.6 | 0.00 | 0.00 | 0.00 | 90 | 1016.4 |
| 20260506061403 | 58 | 211 | 7.0 | 11.3 | 0.00 | 0.00 | 0.00 | 90 | 1016.4 |
| 20260506060901 | 58 | 242 | 3.5 | 6.1 | 0.00 | 0.00 | 0.00 | 89 | 1016.4 |
| 20260506060359 | 58 | 223 | 5.2 | 13.0 | 0.00 | 0.00 | 0.00 | 89 | 1016.4 |
| 20260506051330 | 58 | 233 | 7.0 | 9.6 | 0.00 | 0.00 | 0.00 | 88 | 1016.7 |
| 20260506050828 | 58 | 206 | 7.0 | 12.2 | 0.00 | 0.00 | 0.00 | 88 | 1016.7 |
| 20260506050325 | 58 | 223 | 5.2 | 12.2 | 0.00 | 0.00 | 0.00 | 88 | 1016.5 |
| 20260506044816 | 58 | 239 | 4.3 | 13.9 | 0.00 | 0.00 | 0.00 | 88 | 1016.5 |
| 20260506044314 | 59 | 191 | 3.5 | 14.8 | 0.00 | 0.00 | 0.00 | 88 | 1016.4 |
| 20260506043810 | 58 | 241 | 5.2 | 12.2 | 0.00 | 0.00 | 0.00 | 88 | 1016.4 |
| 20260506043308 | 58 | 239 | 6.1 | 8.7 | 0.00 | 0.00 | 0.00 | 88 | 1016.5 |
| 20260506042806 | 59 | 215 | 7.8 | 13.0 | 0.00 | 0.00 | 0.00 | 88 | 1016.5 |
| 20260506042305 | 59 | 200 | 3.5 | 13.9 | 0.00 | 0.00 | 0.00 | 87 | 1016.6 |
| 20260506041803 | 59 | 243 | 2.6 | 13.0 | 0.00 | 0.00 | 0.00 | 87 | 1016.5 |
| 20260506041259 | 59 | 214 | 4.3 | 13.9 | 0.00 | 0.00 | 0.00 | 87 | 1016.7 |
| 20260506040757 | 59 | 210 | 6.1 | 11.3 | 0.00 | 0.00 | 0.00 | 87 | 1016.6 |
| 20260506040254 | 58 | 216 | 7.0 | 13.9 | 0.00 | 0.00 | 0.00 | 87 | 1016.6 |
| 20260506035751 | 58 | 224 | 5.2 | 8.7 | 0.00 | 0.00 | 0.00 | 88 | 1016.9 |
| 20260506035248 | 58 | 160 | 5.2 | 7.8 | 0.00 | 0.00 | 0.00 | 87 | 1016.7 |
| 20260506034744 | 58 | 256 | 7.0 | 11.3 | 0.00 | 0.00 | 0.00 | 87 | 1016.7 |
| 20260506034242 | 58 | 215 | 6.1 | 8.7 | 0.00 | 0.00 | 0.00 | 87 | 1016.8 |
| 20260506033739 | 58 | 220 | 3.5 | 12.2 | 0.00 | 0.00 | 0.00 | 87 | 1016.7 |
| 20260506033236 | 58 | 215 | 6.1 | 7.8 | 0.00 | 0.00 | 0.00 | 87 | 1016.6 |
| 20260506032732 | 58 | 176 | 8.7 | 13.9 | 0.00 | 0.00 | 0.00 | 86 | 1016.8 |
| 20260506032229 | 58 | 205 | 3.5 | 5.2 | 0.00 | 0.00 | 0.00 | 86 | 1016.8 |
| 20260506031725 | 58 | 222 | 6.1 | 8.7 | 0.00 | 0.00 | 0.00 | 87 | 1016.5 |
| 20260506031223 | 58 | 233 | 3.5 | 8.7 | 0.00 | 0.00 | 0.00 | 87 | 1016.7 |
| 20260506030721 | 58 | 243 | 7.8 | 8.7 | 0.00 | 0.00 | 0.00 | 88 | 1016.6 |
| 20260506030218 | 58 | 218 | 2.6 | 5.2 | 0.00 | 0.00 | 0.00 | 88 | 1016.8 |
| 20260506025715 | 58 | 221 | 1.7 | 14.8 | 0.00 | 0.00 | 0.00 | 87 | 1016.8 |
| 20260506025211 | 59 | 212 | 3.5 | 7.0 | 0.00 | 0.00 | 0.00 | 87 | 1016.6 |
| 20260506024708 | 59 | 240 | 6.1 | 8.7 | 0.00 | 0.00 | 0.00 | 87 | 1016.8 |
| 20260506024205 | 59 | 258 | 5.2 | 7.0 | 0.00 | 0.00 | 0.00 | 87 | 1016.6 |
| 20260506023701 | 59 | 243 | 1.7 | 8.7 | 0.00 | 0.00 | 0.00 | 87 | 1016.6 |
| 20260506023159 | 59 | 220 | 7.8 | 15.6 | 0.00 | 0.00 | 0.00 | 86 | 1016.8 |
| 20260506022655 | 59 | 214 | 4.3 | 12.2 | 0.00 | 0.00 | 0.00 | 86 | 1016.9 |
| 20260506022153 | 59 | 252 | 3.5 | 9.6 | 0.00 | 0.00 | 0.00 | 86 | 1016.8 |
| 20260506021651 | 59 | 200 | 3.5 | 8.7 | 0.00 | 0.00 | 0.00 | 86 | 1016.7 |
| 20260506021148 | 59 | 243 | 4.3 | 8.7 | 0.00 | 0.00 | 0.00 | 86 | 1016.5 |
| 20260506020645 | 59 | 218 | 7.8 | 11.3 | 0.00 | 0.00 | 0.00 | 85 | 1016.7 |
| 20260506020143 | 59 | 264 | 5.2 | 7.8 | 0.00 | 0.00 | 0.00 | 85 | 1016.6 |
| 20260506015640 | 59 | 271 | 4.3 | 11.3 | 0.00 | 0.00 | 0.00 | 85 | 1016.5 |
| 20260506015137 | 59 | 242 | 3.5 | 13.0 | 0.00 | 0.00 | 0.00 | 84 | 1016.5 |
| 20260506014635 | 59 | 227 | 6.1 | 9.6 | 0.00 | 0.00 | 0.00 | 84 | 1016.4 |
| 20260506014130 | 59 | 211 | 3.5 | 11.3 | 0.00 | 0.00 | 0.00 | 84 | 1016.7 |
| 20260506013628 | 59 | 207 | 3.5 | 8.7 | 0.00 | 0.00 | 0.00 | 84 | 1016.3 |
| 20260506013125 | 59 | 183 | 4.3 | 9.6 | 0.00 | 0.00 | 0.00 | 84 | 1016.2 |
| 20260506012621 | 59 | 224 | 8.7 | 11.3 | 0.00 | 0.00 | 0.00 | 84 | 1016.3 |
| 20260506012117 | 59 | 232 | 7.0 | 8.7 | 0.00 | 0.00 | 0.00 | 83 | 1016.2 |
| 20260506011610 | 59 | 196 | 5.2 | 13.0 | 0.00 | 0.00 | 0.00 | 83 | 1016.1 |
| 20260506011106 | 59 | 194 | 11.3 | 13.9 | 0.00 | 0.00 | 0.00 | 82 | 1016.0 |
| 20260506010605 | 60 | 255 | 7.0 | 12.2 | 0.00 | 0.00 | 0.00 | 82 | 1016.1 |
| 20260506005559 | 60 | 199 | 7.8 | 14.8 | 0.00 | 0.00 | 0.00 | 81 | 1016.0 |
| 20260506005055 | 60 | 257 | 4.3 | 8.7 | 0.00 | 0.00 | 0.00 | 81 | 1015.9 |
| 20260506004552 | 60 | 218 | 10.4 | 14.8 | 0.00 | 0.00 | 0.00 | 81 | 1015.7 |
| 20260506004048 | 60 | 235 | 7.8 | 18.2 | 0.00 | 0.00 | 0.00 | 80 | 1015.5 |
| 20260506003545 | 60 | 239 | 7.8 | 15.6 | 0.00 | 0.00 | 0.00 | 80 | 1015.7 |
| 20260506003041 | 60 | 197 | 6.1 | 11.3 | 0.00 | 0.00 | 0.00 | 80 | 1015.6 |
| 20260506002537 | 60 | 203 | 15.6 | 20.9 | 0.00 | 0.00 | 0.00 | 80 | 1015.5 |
| 20260506002033 | 60 | 258 | 5.2 | 13.9 | 0.00 | 0.00 | 0.00 | 80 | 1015.3 |
| 20260506001530 | 60 | 234 | 4.3 | 14.8 | 0.00 | 0.00 | 0.00 | 80 | 1015.6 |
| 20260506001027 | 60 | 198 | 13.9 | 21.7 | 0.00 | 0.00 | 0.00 | 81 | 1015.6 |
| 20260506000525 | 60 | 218 | 7.0 | 13.0 | 0.00 | 0.00 | 0.00 | 81 | 1015.4 |
| 20260506000022 | 60 | 206 | 9.6 | 16.5 | 0.00 | 0.00 | 0.00 | 81 | 1015.2 |
| 20260505235520 | 60 | 170 | 7.8 | 14.8 | 0.00 | 0.00 | 0.00 | 81 | 1015.2 |
| 20260505235016 | 59 | 217 | 11.3 | 14.8 | 0.00 | 0.00 | 0.00 | 82 | 1015.4 |
| 20260505234513 | 59 | 196 | 8.7 | 11.3 | 0.00 | 0.00 | 0.00 | 82 | 1015.2 |
| 20260505234010 | 60 | 212 | 7.0 | 12.2 | 0.00 | 0.00 | 0.00 | 81 | 1015.1 |
| 20260505233508 | 60 | 194 | 7.8 | 13.0 | 0.00 | 0.00 | 0.00 | 82 | 1014.7 |
| 20260505233005 | 60 | 208 | 7.8 | 13.0 | 0.00 | 0.00 | 0.00 | 82 | 1014.7 |
| 20260505232503 | 60 | 219 | 4.3 | 11.3 | 0.00 | 0.00 | 0.00 | 81 | 1014.6 |
| 20260505232000 | 60 | 245 | 4.3 | 8.7 | 0.00 | 0.00 | 0.00 | 81 | 1014.7 |
| 20260505231457 | 60 | 203 | 7.8 | 14.8 | 0.00 | 0.00 | 0.00 | 81 | 1014.5 |
| 20260505230955 | 60 | 199 | 4.3 | 13.9 | 0.00 | 0.00 | 0.00 | 81 | 1014.5 |
| 20260505230452 | 60 | 230 | 7.0 | 12.2 | 0.00 | 0.00 | 0.00 | 81 | 1014.5 |
| 20260505225948 | 60 | 185 | 7.8 | 11.3 | 0.00 | 0.00 | 0.00 | 81 | 1014.6 |
| 20260505225446 | 60 | 292 | 7.8 | 14.8 | 0.00 | 0.00 | 0.00 | 80 | 1014.6 |
| 20260505224942 | 60 | 217 | 8.7 | 12.2 | 0.00 | 0.00 | 0.00 | 80 | 1014.3 |
| 20260505224439 | 61 | 216 | 4.3 | 12.2 | 0.00 | 0.00 | 0.00 | 80 | 1014.2 |
| 20260505223936 | 61 | 224 | 8.7 | 13.9 | 0.00 | 0.00 | 0.00 | 79 | 1014.1 |
| 20260505223433 | 61 | 241 | 7.8 | 18.2 | 0.00 | 0.00 | 0.00 | 79 | 1014.4 |
| 20260505222929 | 61 | 233 | 7.8 | 12.2 | 0.00 | 0.00 | 0.00 | 79 | 1014.3 |
| 20260505222425 | 61 | 181 | 7.0 | 9.6 | 0.00 | 0.00 | 0.00 | 78 | 1014.2 |
| 20260505221921 | 61 | 204 | 7.8 | 13.0 | 0.00 | 0.00 | 0.00 | 78 | 1014.2 |
| 20260505221419 | 61 | 219 | 7.0 | 13.0 | 0.00 | 0.00 | 0.00 | 78 | 1014.0 |
| 20260505220916 | 61 | 221 | 10.4 | 14.8 | 0.00 | 0.00 | 0.00 | 78 | 1014.1 |
| 20260505220413 | 61 | 156 | 8.7 | 12.2 | 0.00 | 0.00 | 0.00 | 79 | 1014.1 |
| 20260505215911 | 61 | 226 | 7.0 | 13.0 | 0.00 | 0.00 | 0.00 | 79 | 1014.3 |
| 20260505215408 | 60 | 124 | 3.5 | 13.0 | 0.00 | 0.00 | 0.00 | 79 | 1014.2 |
| 20260505214906 | 60 | 269 | 7.8 | 11.3 | 0.00 | 0.00 | 0.00 | 80 | 1014.3 |
| 20260505214403 | 61 | 263 | 4.3 | 14.8 | 0.00 | 0.00 | 0.00 | 79 | 1014.0 |
| 20260505213900 | 61 | 184 | 6.1 | 13.0 | 0.00 | 0.00 | 0.00 | 79 | 1014.0 |
| 20260505213358 | 61 | 232 | 7.8 | 13.0 | 0.00 | 0.00 | 0.00 | 78 | 1014.0 |
| 20260505212854 | 61 | 218 | 7.0 | 13.0 | 0.00 | 0.00 | 0.00 | 78 | 1013.9 |
| 20260505212351 | 62 | 211 | 8.7 | 13.0 | 0.00 | 0.00 | 0.00 | 77 | 1013.7 |
| 20260505211847 | 62 | 203 | 7.8 | 13.9 | 0.00 | 0.00 | 0.00 | 77 | 1013.7 |
| 20260505211345 | 61 | 196 | 4.3 | 13.0 | 0.00 | 0.00 | 0.00 | 77 | 1013.8 |
| 20260505210841 | 61 | 250 | 9.6 | 20.0 | 0.00 | 0.00 | 0.00 | 78 | 1013.7 |
| 20260505210339 | 62 | 172 | 5.2 | 12.2 | 0.00 | 0.00 | 0.00 | 77 | 1013.9 |
| 20260505205835 | 62 | 240 | 6.1 | 15.6 | 0.00 | 0.00 | 0.00 | 77 | 1013.6 |
| 20260505205334 | 62 | 237 | 5.2 | 11.3 | 0.00 | 0.00 | 0.00 | 76 | 1013.7 |
| 20260505204830 | 63 | 232 | 7.0 | 12.2 | 0.00 | 0.00 | 0.00 | 76 | 1013.7 |
| 20260505204328 | 63 | 202 | 8.7 | 13.9 | 0.00 | 0.00 | 0.00 | 75 | 1013.7 |
| 20260505203825 | 62 | 208 | 7.8 | 13.0 | 0.00 | 0.00 | 0.00 | 76 | 1013.7 |
| 20260505203321 | 63 | 228 | 5.2 | 7.8 | 0.00 | 0.00 | 0.00 | 75 | 1013.8 |
| 20260505202818 | 64 | 224 | 6.1 | 9.6 | 0.00 | 0.00 | 0.00 | 74 | 1013.8 |
| 20260505202314 | 64 | 247 | 4.3 | 11.3 | 0.00 | 0.00 | 0.00 | 74 | 1014.0 |
| 20260505201811 | 63 | 126 | 5.2 | 9.6 | 0.00 | 0.00 | 0.00 | 75 | 1013.9 |
| 20260505201308 | 62 | 249 | 2.6 | 8.7 | 0.00 | 0.00 | 0.00 | 77 | 1014.3 |
| 20260505200807 | 62 | 195 | 7.0 | 13.9 | 0.00 | 0.00 | 0.00 | 77 | 1014.2 |
| 20260505200303 | 62 | 253 | 2.6 | 5.2 | 0.00 | 0.00 | 0.00 | 78 | 1014.3 |
| 20260505195758 | 62 | 216 | 3.5 | 7.0 | 0.00 | 0.00 | 0.00 | 77 | 1014.5 |
| 20260505195256 | 62 | 213 | 1.7 | 9.6 | 0.00 | 0.00 | 0.00 | 78 | 1014.4 |
| 20260505194753 | 63 | 245 | 7.0 | 8.7 | 0.00 | 0.00 | 0.00 | 76 | 1014.6 |
| 20260505194250 | 63 | 187 | 0.0 | 9.6 | 0.00 | 0.00 | 0.00 | 78 | 1014.5 |
| 20260505193745 | 63 | 251 | 5.2 | 7.8 | 0.00 | 0.00 | 0.00 | 76 | 1014.7 |
| 20260505193243 | 64 | 241 | 3.5 | 7.0 | 0.00 | 0.00 | 0.00 | 76 | 1014.8 |
| 20260505192741 | 63 | 256 | 3.5 | 5.2 | 0.00 | 0.00 | 0.00 | 77 | 1015.0 |
| 20260505192239 | 63 | 220 | 7.0 | 9.6 | 0.00 | 0.00 | 0.00 | 75 | 1015.1 |
| 20260505191737 | 64 | 243 | 1.7 | 9.6 | 0.00 | 0.00 | 0.00 | 77 | 1015.0 |
| 20260505191235 | 62 | 194 | 4.3 | 11.3 | 0.00 | 0.00 | 0.00 | 78 | 1015.1 |
| 20260505190731 | 62 | 238 | 3.5 | 13.0 | 0.00 | 0.00 | 0.00 | 78 | 1015.5 |
| 20260505190231 | 62 | 221 | 5.2 | 9.6 | 0.00 | 0.00 | 0.00 | 80 | 1015.4 |
| 20260505185728 | 62 | 246 | 7.8 | 13.9 | 0.00 | 0.00 | 0.00 | 79 | 1015.5 |
| 20260505185224 | 62 | 225 | 3.5 | 11.3 | 0.00 | 0.00 | 0.00 | 79 | 1015.5 |
| 20260505184720 | 62 | 187 | 3.5 | 13.9 | 0.00 | 0.00 | 0.00 | 80 | 1015.5 |
| 20260505184218 | 62 | 248 | 1.7 | 9.6 | 0.00 | 0.00 | 0.00 | 78 | 1015.5 |
| 20260505183714 | 63 | 165 | 7.0 | 11.3 | 0.00 | 0.00 | 0.00 | 76 | 1015.7 |
| 20260505183212 | 62 | 173 | 4.3 | 7.0 | 0.00 | 0.00 | 0.00 | 78 | 1015.5 |
| 20260505182708 | 62 | 207 | 5.2 | 11.3 | 0.00 | 0.00 | 0.00 | 79 | 1015.9 |
| 20260505182205 | 62 | 219 | 6.1 | 7.8 | 0.00 | 0.00 | 0.00 | 79 | 1015.8 |
| 20260505181701 | 62 | 138 | 6.1 | 11.3 | 0.00 | 0.00 | 0.00 | 79 | 1015.9 |
| 20260505181159 | 64 | 225 | 1.7 | 8.7 | 0.00 | 0.00 | 0.00 | 77 | 1016.1 |
| 20260505180655 | 63 | 211 | 2.6 | 7.8 | 0.00 | 0.00 | 0.00 | 78 | 1016.1 |
| 20260505180153 | 62 | 253 | 2.6 | 7.8 | 0.00 | 0.00 | 0.00 | 80 | 1016.0 |
| 20260505175648 | 62 | 210 | 3.5 | 9.6 | 0.00 | 0.00 | 0.00 | 80 | 1016.2 |
| 20260505175145 | 61 | 274 | 5.2 | 8.7 | 0.00 | 0.00 | 0.00 | 81 | 1016.0 |
| 20260505174642 | 63 | 241 | 5.2 | 8.7 | 0.00 | 0.00 | 0.00 | 79 | 1016.2 |
| 20260505174138 | 62 | 240 | 4.3 | 7.8 | 0.00 | 0.00 | 0.00 | 80 | 1015.9 |
| 20260505173635 | 62 | 209 | 4.3 | 8.7 | 0.00 | 0.00 | 0.00 | 79 | 1016.1 |
| 20260505173131 | 64 | 230 | 7.0 | 8.7 | 0.00 | 0.00 | 0.00 | 77 | 1016.2 |
| 20260505172629 | 62 | 194 | 3.5 | 7.0 | 0.00 | 0.00 | 0.00 | 80 | 1016.1 |
| 20260505172126 | 62 | 144 | 3.5 | 9.6 | 0.00 | 0.00 | 0.00 | 82 | 1016.3 |
| 20260505171620 | 61 | 230 | 3.5 | 5.2 | 0.00 | 0.00 | 0.00 | 82 | 1016.4 |
| 20260505171118 | 61 | 225 | 7.0 | 9.6 | 0.00 | 0.00 | 0.00 | 81 | 1016.4 |
| 20260505170615 | 61 | 220 | 5.2 | 7.0 | 0.00 | 0.00 | 0.00 | 81 | 1016.3 |
| 20260505170111 | 62 | 216 | 6.1 | 9.6 | 0.00 | 0.00 | 0.00 | 80 | 1016.5 |
| 20260505165606 | 62 | 196 | 4.3 | 7.0 | 0.00 | 0.00 | 0.00 | 81 | 1016.4 |
| 20260505165102 | 62 | 240 | 1.7 | 5.2 | 0.00 | 0.00 | 0.00 | 80 | 1016.3 |
| 20260505164558 | 62 | 181 | 1.7 | 7.8 | 0.00 | 0.00 | 0.00 | 81 | 1016.4 |
| 20260505164055 | 61 | 233 | 6.1 | 7.8 | 0.00 | 0.00 | 0.00 | 80 | 1016.5 |
| 20260505163554 | 62 | 217 | 4.3 | 9.6 | 0.00 | 0.00 | 0.00 | 80 | 1016.5 |
| 20260505163051 | 62 | 140 | 3.5 | 7.8 | 0.00 | 0.00 | 0.00 | 80 | 1016.7 |
| 20260505162544 | 62 | 160 | 3.5 | 8.7 | 0.00 | 0.00 | 0.00 | 80 | 1016.5 |
| 20260505162041 | 62 | 184 | 6.1 | 7.8 | 0.00 | 0.00 | 0.00 | 80 | 1016.7 |
| 20260505161537 | 61 | 229 | 3.5 | 7.8 | 0.00 | 0.00 | 0.00 | 81 | 1016.7 |
| 20260505161034 | 62 | 224 | 5.2 | 8.7 | 0.00 | 0.00 | 0.00 | 80 | 1016.8 |
| 20260505160532 | 63 | 190 | 5.2 | 9.6 | 0.00 | 0.00 | 0.00 | 79 | 1016.9 |
| 20260505153002 | 61 | 190 | 5.2 | 7.8 | 0.00 | 0.00 | 0.00 | 82 | 1016.9 |
| 20260505152455 | 61 | 242 | 6.1 | 9.6 | 0.00 | 0.00 | 0.00 | 82 | 1017.0 |
| 20260505151949 | 61 | 213 | 4.3 | 7.8 | 0.00 | 0.00 | 0.00 | 81 | 1017.2 |
| 20260505151439 | 61 | 177 | 5.2 | 7.8 | 0.00 | 0.00 | 0.00 | 81 | 1017.4 |
| 20260505150937 | 61 | 260 | 3.5 | 8.7 | 0.00 | 0.00 | 0.00 | 82 | 1017.3 |
| 20260505150428 | 60 | 208 | 5.2 | 7.0 | 0.00 | 0.00 | 0.00 | 82 | 1017.4 |
| 20260505140358 | 60 | 216 | 4.3 | 7.8 | 0.00 | 0.00 | 0.00 | 84 | 1017.1 |
| 20260505124806 | 58 | 199 | 0.0 | 1.7 | 0.00 | 0.00 | 0.00 | 89 | 1016.9 |
| 20260505124303 | 58 | 220 | 1.7 | 3.5 | 0.00 | 0.00 | 0.00 | 90 | 1017.0 |
| 20260505123758 | 57 | 240 | 3.5 | 7.0 | 0.00 | 0.00 | 0.00 | 90 | 1016.8 |
| 20260505123255 | 58 | 226 | 3.5 | 6.1 | 0.00 | 0.00 | 0.00 | 89 | 1016.9 |
| 20260505122751 | 58 | 206 | 1.7 | 6.1 | 0.00 | 0.00 | 0.00 | 89 | 1016.9 |
| 20260505122249 | 58 | 193 | 1.7 | 7.0 | 0.00 | 0.00 | 0.00 | 90 | 1017.2 |
| 20260505121745 | 57 | 213 | 3.5 | 8.7 | 0.00 | 0.00 | 0.00 | 91 | 1016.9 |
| 20260505121242 | 57 | 196 | 2.6 | 3.5 | 0.00 | 0.00 | 0.00 | 92 | 1017.0 |
| 20260505120738 | 57 | 197 | 1.7 | 2.6 | 0.00 | 0.00 | 0.00 | 92 | 1017.2 |
| 20260505120235 | 57 | 235 | 1.7 | 5.2 | 0.00 | 0.00 | 0.00 | 92 | 1017.0 |
| 20260505115733 | 57 | 237 | 2.6 | 3.5 | 0.00 | 0.00 | 0.00 | 91 | 1016.9 |
| 20260505115231 | 57 | 232 | 1.7 | 6.1 | 0.00 | 0.00 | 0.00 | 91 | 1016.9 |
| 20260505114729 | 57 | 254 | 4.3 | 5.2 | 0.00 | 0.00 | 0.00 | 91 | 1016.9 |